Weather History for KSMO - January, 2013

Change the Weather History Date:

Saturday, January 19, 2013

  Actual Average (KLAX) Record (KLAX)
Temperature  
Mean Temperature 64 °F 57 °F  
Max Temperature 79 °F 65 °F 86 °F (1975)
Min Temperature 48 °F 49 °F 40 °F (1955)
Degree Days  
Heating Degree Days 2 8  
Month to date heating degree days 163  
Since 1 July heating degree days 605  
Cooling Degree Days 0 0  
Month to date cooling degree days 0  
Year to date cooling degree days 0  
Growing Degree Days 14 (Base 50)    
Moisture  
Dew Point 22 °F    
Average Humidity 22    
Maximum Humidity 38    
Minimum Humidity 9    
Precipitation  
Precipitation 0.00 in 0.09 in 1.70 in (1969)
Month to date precipitation 1.70  
Year to date precipitation 1.70  
Since 1 July precipitation 5.71  
Sea Level Pressure  
Sea Level Pressure 30.12 in    
Wind  
Wind Speed 4 mph (NE)    
Max Wind Speed 6 mph    
Max Gust Speed -    
Visibility 10 miles    
Events      
T = Trace of Precipitation, MM = Missing Value Source: NWS Daily Summary

Daily Weather History Graph

Daily Weather History Graph

Search for Another Location

Airport or City:

Trip Planner

Search our weather history database for the weather conditions in past years. The results will help you decide how hot, cold, wet, or windy it might be!

Date:

Astronomy

Jan. 19, 2013 Rise Set
Actual Time 6:57 AM PST 5:11 PM PST
Civil Twilight 6:30 AM PST 5:38 PM PST
Nautical Twilight 6:00 AM PST 6:09 PM PST
Astronomical Twilight 5:30 AM PST 6:39 PM PST
Moon 11:37 AM PST (1/19) 12:40 AM PST (1/19)
Length of Visible Light 11h 07m
Length of Day
10h 14m
First Quarter, 58% of the Moon is Illuminated
Jan 19
First Quarter
Jan 26
Full
Feb 3
Last Quarter
Feb 9
New
Feb 17
First Quarter

Hourly Weather History & Observations

Time (PST) Temp. Dew Point Humidity Pressure Visibility Wind Dir Wind Speed Gust Speed Precip Events Conditions
12:51 AM 57.9 °F 18.0 °F 21% 30.10 in 10.0 mi North 4.6 mph - N/A   Clear
1:51 AM 57.9 °F 17.1 °F 20% 30.11 in 10.0 mi North 4.6 mph - N/A   Clear
2:51 AM 57.9 °F 16.0 °F 19% 30.11 in 10.0 mi ENE 3.5 mph - N/A   Clear
3:51 AM 52.0 °F 21.9 °F 31% 30.11 in 10.0 mi ENE 3.5 mph - N/A   Clear
4:51 AM 51.1 °F 23.0 °F 33% 30.11 in 10.0 mi NNE 4.6 mph - N/A   Clear
5:51 AM 50.0 °F 23.0 °F 35% 30.12 in 10.0 mi ENE 5.8 mph - N/A   Clear
6:51 AM 48.9 °F 23.0 °F 36% 30.14 in 10.0 mi NE 4.6 mph - N/A   Clear
7:51 AM 53.1 °F 25.0 °F 34% 30.16 in 10.0 mi NE 4.6 mph - N/A   Clear
8:51 AM 66.0 °F 21.9 °F 19% 30.17 in 10.0 mi NNE 4.6 mph - N/A   Clear
9:51 AM 68.0 °F 25.0 °F 20% 30.19 in 10.0 mi East 4.6 mph - N/A   Clear
10:51 AM 73.0 °F 21.0 °F 14% 30.17 in 10.0 mi East 5.8 mph - N/A   Clear
11:51 AM 77.0 °F 18.0 °F 11% 30.14 in 10.0 mi Variable 4.6 mph - N/A   Clear
12:51 PM 79.0 °F 16.0 °F 9% 30.11 in 10.0 mi ENE 3.5 mph - N/A   Clear
1:51 PM 78.1 °F 15.1 °F 9% 30.09 in 10.0 mi Calm Calm - N/A   Clear
2:51 PM 77.0 °F 17.1 °F 10% 30.08 in 10.0 mi SW 5.8 mph - N/A   Clear
3:51 PM 73.9 °F 19.9 °F 13% 30.08 in 10.0 mi SW 4.6 mph - N/A   Clear
4:51 PM 71.1 °F 25.0 °F 18% 30.09 in 10.0 mi WSW 3.5 mph - N/A   Clear
5:51 PM 64.9 °F 34.0 °F 32% 30.09 in 10.0 mi Calm Calm - N/A   Clear
6:51 PM 63.0 °F 25.0 °F 24% 30.10 in 10.0 mi West 3.5 mph - N/A   Clear
7:51 PM 60.1 °F 34.0 °F 38% 30.11 in 10.0 mi Calm Calm - N/A   Clear
8:51 PM 59.0 °F 28.0 °F 31% 30.12 in 10.0 mi NNE 3.5 mph - N/A   Clear
9:51 PM 59.0 °F 21.9 °F 24% 30.13 in 10.0 mi ENE 4.6 mph - N/A   Clear
10:51 PM 59.0 °F 18.0 °F 20% 30.13 in 10.0 mi NE 4.6 mph - N/A   Clear
11:51 PM 59.0 °F 15.1 °F 18% 30.13 in 10.0 mi NNE 3.5 mph - N/A   Clear